SCP
0 0 0 0 1 13 14 10 9 10 7 5 4 3 2 3 2 3 4 5 5 5 5 4 4 4 5 4 4 3 4 3 2 1 2 2 2 1 2 0 0 0 1
0 0 0 0 0 6 13 19 11 10 8 8 6 4 4 3 4 4 6 7 9 9 7 6 4 3 4 3 4 4 3 3 2 3 2 2 2 2 1 0 0 0 0
0 0 0 0 0 1 9 9 13 9 9 6 7 5 4 5 5 7 8 10 9 10 9 8 5 3 4 4 4 3 2 2 2 3 2 2 1 1 1 0 0 0 1
0 0 0 0 0 0 1 3 13 7 6 8 5 6 7 8 11 14 14 10 12 9 7 5 4 3 3 2 4 4 3 3 3 2 3 2 2 1 0 1 1 1 1
0 0 0 0 0 0 0 0 2 5 7 7 9 10 9 7 9 11 10 11 8 6 5 4 3 2 3 2 3 3 3 4 3 2 2 2 2 1 1 1 1 1 2
0 0 0 0 0 0 0 0 1 4 5 4 6 7 4 3 3 5 5 4 4 4 3 3 3 2 2 3 3 3 3 3 2 2 2 1 2 2 1 1 1 1 1
0 0 0 0 0 0 0 0 1 1 4 4 6 6 4 8 6 5 3 2 2 3 3 3 2 2 3 3 3 3 2 2 2 2 2 2 2 1 1 1 1 2 2
0 0 0 0 0 0 0 0 1 2 4 6 7 7 6 8 7 3 4 4 4 5 5 3 3 3 2 3 2 2 2 2 2 2 2 2 2 1 1 2 1 1 1
0 0 0 0 0 0 0 1 1 3 5 6 5 6 7 7 7 7 6 5 4 3 3 3 2 2 1 1 1 1 1 2 1 1 2 2 2 2 1 2 1 1 1
0 0 0 0 0 0 1 2 6 7 6 6 7 8 7 6 4 3 2 2 1 1 1 1 1 1 1 1 1 1 1 1 1 1 1 1 1 1 1 1 1 1 1
2 2 0 0 0 0 7 7 6 6 4 4 3 3 2 2 1 1 1 1 1 1 0 0 0 0 0 0 0 0 0 0 0 0 0 0 0 0 1 1 1 1 1
3 4 1 5 7 9 8 5 3 2 2 1 1 1 1 1 0 0 0 0 0 0 0 0 0 0 0 0 0 0 0 0 0 0 0 0 0 0 0 0 0 0 0
2 2 3 5 2 2 2 3 2 1 1 0 0 0 0 0 0 0 0 0 0 0 0 0 0 0 0 0 0 0 0 0 0 0 0 0 0 0 0 0 0 0 0
2 2 2 3 3 4 2 1 1 0 0 0 0 0 0 0 0 0 0 0 0 0 0 0 0 0 0 0 0 0 0 0 0 0 0 0 0 0 0 0 0 0 0
1 1 2 3 2 1 1 0 0 0 0 0 0 0 0 0 0 0 0 0 0 0 0 0 0 0 0 0 0 0 0 0 0 0 0 0 0 0 0 0 0 0 0
1 2 1 1 1 1 0 0 0 0 0 0 0 0 0 0 0 0 0 0 0 0 0 0 0 0 0 0 0 0 0 0 0 0 0 0 0 0 0 0 0 0 0
0 1 0 0 0 0 0 0 0 0 0 0 0 0 0 0 0 0 0 0 0 0 0 0 0 0 0 0 0 0 0 0 0 0 0 0 0 0 0 0 0 0 0
0 0 0 0 0 0 0 0 0 0 0 0 0 0 0 0 0 0 0 0 0 0 0 0 0 0 0 0 0 0 0 0 0 0 0 0 0 0 0 0 0 0 0
0 0 0 0 0 0 0 0 0 0 0 0 0 0 0 0 0 0 0 0 0 0 0 0 0 0 0 0 0 0 0 0 0 0 0 0 0 0 0 0 0 0 0
0 0 0 0 0 0 0 0 0 0 0 0 0 0 0 0 0 0 0 0 0 0 0 0 0 0 0 0 0 0 0 0 0 0 0 0 0 0 0 0 0 0 0
0 0 0 0 0 0 0 0 0 0 0 0 0 0 0 0 0 0 0 0 0 0 0 0 0 0 0 0 0 0 0 0 0 0 0 0 0 0 0 0 0 0 0
0 0 0 0 0 0 0 0 0 0 0 0 0 0 0 0 0 0 0 0 0 0 0 0 0 0 0 0 -0 0 0 0 0 0 0 0 0 0 0 0 0 0 0
0 0 0 0 0 0 0 0 0 0 0 0 0 0 0 0 0 0 0 0 0 0 0 0 0 0 0 0 0 0 0 0 0 0 0 0 0 0 0 0 0 0 0
0 0 0 0 0 0 0 0 0 0 0 0 0 0 0 0 0 0 0 0 0 0 0 0 0 0 0 0 0 0 -0 -0 0 0 0 0 0 0 0 0 0 0 0
0 0 0 0 0 0 0 0 0 0 0 0 0 0 0 0 0 0 0 0 0 0 0 0 0 0 0 0 -0 -0 -0 0 0 0 0 0 0 0 0 0 0 -0 0
0 0 0 0 0 0 0 0 0 0 0 0 0 0 0 0 0 0 0 0 0 0 0 0 0 0 0 0 -0 -0 -0 -0 0 0 0 0 0 0 0 0 0 0 0
Wind_Speed_500mb
68 64 73 63 68 50 60 63 66 64 64 59 66 59 65 55 54 50 47 45 51 45 44 40 40 48 44 44 37 38 39 45 41 40 46 52 55 52 61 70 68 57 53
71 76 77 67 69 74 57 67 72 74 72 69 60 62 51 52 51 46 46 47 51 52 49 48 40 37 44 38 38 49 47 48 42 39 40 45 38 40 45 53 42 44 41
60 76 72 84 73 76 80 74 73 77 78 70 61 49 49 44 48 45 49 52 55 59 56 54 46 43 49 52 41 40 42 45 39 39 36 18 21 25 39 46 50 47 42
68 64 75 77 87 83 83 79 61 69 68 69 64 63 60 57 51 50 45 57 67 65 54 53 48 47 52 34 34 38 37 38 43 38 44 46 46 43 37 49 35 35 43
73 64 53 60 82 77 86 75 78 74 75 73 58 62 61 63 60 53 54 49 44 45 48 46 39 43 37 35 31 33 34 34 38 39 34 43 47 47 48 46 47 39 25
70 78 68 54 63 74 75 69 77 79 80 69 69 64 65 43 37 40 34 33 37 37 35 38 30 33 33 32 31 31 33 31 35 38 40 44 45 49 41 49 49 47 51
71 73 76 70 59 76 74 72 71 70 71 67 74 62 50 37 48 33 25 26 27 26 25 26 21 19 22 24 28 30 33 31 36 35 34 38 41 41 39 40 41 45 49
75 74 75 76 76 74 76 80 76 66 70 71 68 67 50 47 39 27 24 24 23 22 29 29 25 26 28 26 26 22 24 28 30 34 40 45 44 48 53 48 46 50 48
71 72 71 72 73 67 68 83 77 64 65 65 55 50 56 40 45 41 42 36 34 31 30 26 30 28 28 28 26 24 23 29 33 35 39 37 39 41 35 34 35 34 32
39 47 72 67 73 77 72 72 75 73 68 65 56 57 58 60 55 51 48 37 28 18 19 23 21 13 8 5 5 9 16 20 21 23 25 28 32 32 33 34 35 31 34
16 13 44 51 72 71 72 85 76 73 64 65 66 64 66 58 50 38 33 28 24 17 11 20 16 11 6 7 7 9 9 13 17 18 21 22 23 25 27 28 27 29 31
28 25 28 64 80 81 73 71 71 71 65 72 69 63 57 52 46 43 37 34 32 28 26 18 12 7 11 18 15 13 14 14 18 22 23 31 31 31 32 23 28 25 23
34 34 43 67 74 75 71 66 66 70 71 72 69 61 56 54 51 47 41 36 30 24 16 9 3 3 5 4 17 29 28 27 26 25 28 34 35 33 33 38 39 39 40
39 39 46 63 71 70 71 66 78 77 72 71 68 67 64 60 54 47 38 29 21 13 5 5 6 11 10 16 26 35 34 35 35 31 29 31 32 35 35 41 50 50 46
46 46 58 69 75 76 78 77 74 73 73 73 71 67 59 51 44 36 27 19 12 7 4 6 7 12 19 21 30 39 46 49 43 32 19 24 31 38 40 38 38 42 43
48 61 75 87 85 80 74 74 75 72 68 68 66 58 50 42 34 26 18 10 4 6 7 11 12 13 29 34 42 48 51 43 28 14 21 19 26 23 25 30 36 37 35
38 67 78 79 77 77 80 74 68 68 65 63 58 54 46 41 32 18 6 5 11 16 18 18 18 23 29 36 42 39 18 18 16 16 22 23 37 38 33 33 37 33 24
64 71 82 79 75 74 73 67 63 62 62 59 54 46 37 29 20 7 4 10 14 15 14 14 8 18 23 29 28 17 13 18 21 22 26 22 23 29 36 47 44 31 28
77 74 82 77 73 71 62 65 62 59 55 48 41 32 23 17 8 5 8 9 11 17 10 5 8 16 18 15 15 18 24 27 23 24 19 19 25 34 43 41 33 23 17
66 74 75 71 71 55 59 58 53 50 45 35 27 21 15 9 5 7 9 11 14 8 3 6 10 14 16 18 20 22 19 15 11 18 22 21 25 36 39 32 33 30 29
63 66 72 71 65 65 59 55 48 45 31 26 17 13 19 12 14 12 5 10 11 13 14 16 20 23 21 27 24 26 25 23 16 12 12 24 30 30 25 29 27 30 35
67 69 69 65 55 47 43 42 39 32 23 13 15 15 20 17 10 15 15 16 20 21 21 22 18 15 21 27 29 23 21 19 19 16 19 21 19 22 26 25 24 29 37
66 62 57 54 48 44 34 29 27 21 16 10 14 18 11 15 12 18 19 15 16 18 17 11 8 11 17 20 26 24 22 25 21 20 14 19 17 20 26 26 31 35 42
52 49 49 43 43 33 26 16 10 3 1 2 10 6 2 13 17 12 14 11 18 16 9 8 8 7 8 17 20 23 27 26 17 16 18 20 20 24 27 29 31 40 40
42 37 34 30 31 23 19 16 9 9 3 8 14 6 10 5 7 7 11 13 14 12 11 12 9 9 10 16 21 24 25 22 22 21 18 16 24 26 31 39 44 46 48
45 41 35 31 25 16 11 4 1 10 14 7 15 22 10 5 7 18 21 17 11 8 12 11 11 12 13 16 20 21 19 22 14 14 21 29 34 38 40 44 51 51 54
Wind_Direction_500mb
227 227 219 211 211 202 195 195 190 193 209 206 202 203 204 208 208 209 214 222 237 242 238 239 227 230 243 251 249 258 257 257 260 270 268 266 266 265 266 263 274 285 299
223 234 213 211 201 208 207 189 198 199 202 211 208 199 209 209 213 216 212 222 228 236 233 237 241 240 245 250 246 241 250 260 265 258 267 281 282 276 265 274 286 292 292
234 223 221 207 201 200 205 198 201 200 203 207 210 203 207 211 217 218 221 225 233 239 240 246 243 233 240 232 239 251 258 262 259 253 260 264 262 283 288 289 289 285 290
229 231 221 207 199 198 197 201 190 199 207 207 207 198 202 206 201 207 207 221 229 236 247 255 250 238 253 250 247 250 255 256 261 263 258 267 268 273 290 294 298 285 296
216 236 229 207 194 194 198 200 207 209 215 208 199 205 207 205 209 204 213 218 224 240 252 247 242 239 246 250 252 255 256 262 267 267 273 281 279 277 271 280 290 297 288
209 221 234 219 198 193 196 199 208 209 212 213 198 206 214 210 211 207 210 215 221 223 228 233 240 240 243 254 249 257 263 271 266 265 268 273 278 280 288 281 280 285 284
215 209 219 224 210 199 196 202 217 217 210 210 202 204 208 185 193 204 199 204 205 220 218 218 229 244 251 255 255 263 268 277 272 276 279 281 278 280 285 292 289 282 285
207 207 213 210 214 205 201 202 206 209 203 201 198 200 191 183 188 164 160 177 192 201 202 208 213 233 238 242 252 255 257 263 272 279 282 282 283 283 283 293 299 297 291
203 200 208 203 201 199 201 192 196 192 183 187 189 186 177 173 169 167 174 171 174 174 185 210 234 231 241 249 263 280 288 285 289 288 286 290 293 291 294 291 291 299 297
195 201 201 202 194 199 187 175 170 167 171 175 166 164 167 172 171 175 178 180 183 197 215 230 241 248 260 291 332 328 323 311 305 305 305 306 307 306 294 300 302 299 295
106 241 232 204 192 161 160 156 163 165 177 173 175 167 169 172 169 172 163 154 140 126 114 94 82 68 11 5 358 23 341 308 324 328 318 313 315 317 318 332 333 328 320
94 59 144 130 123 129 142 151 151 159 169 173 164 161 158 156 159 151 148 147 144 139 130 121 102 57 358 339 329 308 300 302 309 298 310 299 295 292 301 298 286 293 302
107 108 109 108 125 134 138 141 148 157 158 156 154 148 146 143 136 130 127 130 132 135 129 125 99 313 301 5 286 279 281 288 293 294 292 302 302 310 299 293 293 298 292
131 128 124 121 124 132 140 146 144 139 131 131 138 135 133 132 131 132 132 131 130 119 79 44 352 322 319 282 265 279 294 301 302 304 303 304 311 295 294 296 298 299 300
146 148 128 124 134 134 134 132 131 129 127 124 124 127 127 127 127 125 121 117 117 101 56 346 341 316 309 291 285 293 299 302 305 307 328 305 292 300 300 298 306 311 315
140 134 126 121 124 130 130 126 122 122 125 121 120 120 118 113 107 103 104 103 54 344 323 311 307 307 292 298 299 303 308 311 311 329 285 276 298 300 307 315 315 317 326
118 130 117 118 121 121 118 117 121 123 120 115 112 109 107 105 100 102 96 13 325 316 313 317 323 296 300 305 312 325 353 359 332 299 297 297 295 304 308 313 323 322 327
99 92 103 107 108 112 112 116 118 118 113 110 108 108 108 105 102 105 353 325 319 329 357 22 311 303 314 322 339 346 346 332 324 320 312 333 327 329 329 329 330 325 310
103 103 107 105 108 114 115 126 116 121 118 113 109 108 110 102 91 8 345 346 37 61 77 254 297 313 359 20 12 19 33 359 10 353 342 310 318 321 325 333 337 349 344
100 106 113 112 108 112 118 106 111 109 98 98 99 100 94 75 34 32 69 92 107 184 128 3 18 8 19 28 15 13 5 337 4 359 345 334 321 319 332 336 335 339 340
115 119 123 118 120 122 121 112 105 91 92 97 104 72 70 50 75 115 121 119 109 80 65 46 29 26 15 5 359 1 358 355 358 360 339 334 314 325 332 336 345 344 337
122 123 122 119 117 112 104 91 86 84 78 73 65 67 84 118 75 97 90 86 85 67 52 64 52 13 1 346 351 0 358 354 355 350 337 317 342 350 353 347 348 342 338
127 125 121 113 109 99 99 87 68 56 29 30 71 92 114 75 85 103 96 81 92 88 79 82 82 19 1 324 344 355 4 8 9 352 352 348 357 356 355 350 340 333 337
125 124 116 113 111 111 110 105 69 22 248 19 54 128 82 100 121 128 128 127 121 98 111 96 73 53 321 344 1 9 18 19 46 33 18 11 7 357 347 337 329 332 335
119 110 109 119 123 126 133 137 181 143 167 128 136 115 108 126 114 105 102 97 112 130 146 127 83 54 22 12 14 16 18 25 40 33 13 342 351 350 353 344 350 348 349
133 136 132 117 114 116 101 81 125 153 133 151 133 129 106 162 71 105 100 86 86 93 107 99 71 52 35 35 26 21 23 33 44 19 20 16 14 11 5 357 351 356 356
Wind_Speed_850mb
68 64 73 63 68 50 60 63 66 64 64 59 66 59 65 55 54 50 47 45 51 45 44 40 40 48 44 44 37 38 39 45 41 40 46 52 55 52 61 70 68 57 53
71 76 77 67 69 74 57 67 72 74 72 69 60 62 51 52 51 46 46 47 51 52 49 48 40 37 44 38 38 49 47 48 42 39 40 45 38 40 45 53 42 44 41
60 76 72 84 73 76 80 74 73 77 78 70 61 49 49 44 48 45 49 52 55 59 56 54 46 43 49 52 41 40 42 45 39 39 36 18 21 25 39 46 50 47 42
68 64 75 77 87 83 83 79 61 69 68 69 64 63 60 57 51 50 45 57 67 65 54 53 48 47 52 34 34 38 37 38 43 38 44 46 46 43 37 49 35 35 43
73 64 53 60 82 77 86 75 78 74 75 73 58 62 61 63 60 53 54 49 44 45 48 46 39 43 37 35 31 33 34 34 38 39 34 43 47 47 48 46 47 39 25
70 78 68 54 63 74 75 69 77 79 80 69 69 64 65 43 37 40 34 33 37 37 35 38 30 33 33 32 31 31 33 31 35 38 40 44 45 49 41 49 49 47 51
71 73 76 70 59 76 74 72 71 70 71 67 74 62 50 37 48 33 25 26 27 26 25 26 21 19 22 24 28 30 33 31 36 35 34 38 41 41 39 40 41 45 49
75 74 75 76 76 74 76 80 76 66 70 71 68 67 50 47 39 27 24 24 23 22 29 29 25 26 28 26 26 22 24 28 30 34 40 45 44 48 53 48 46 50 48
71 72 71 72 73 67 68 83 77 64 65 65 55 50 56 40 45 41 42 36 34 31 30 26 30 28 28 28 26 24 23 29 33 35 39 37 39 41 35 34 35 34 32
39 47 72 67 73 77 72 72 75 73 68 65 56 57 58 60 55 51 48 37 28 18 19 23 21 13 8 5 5 9 16 20 21 23 25 28 32 32 33 34 35 31 34
16 13 44 51 72 71 72 85 76 73 64 65 66 64 66 58 50 38 33 28 24 17 11 20 16 11 6 7 7 9 9 13 17 18 21 22 23 25 27 28 27 29 31
28 25 28 64 80 81 73 71 71 71 65 72 69 63 57 52 46 43 37 34 32 28 26 18 12 7 11 18 15 13 14 14 18 22 23 31 31 31 32 23 28 25 23
34 34 43 67 74 75 71 66 66 70 71 72 69 61 56 54 51 47 41 36 30 24 16 9 3 3 5 4 17 29 28 27 26 25 28 34 35 33 33 38 39 39 40
39 39 46 63 71 70 71 66 78 77 72 71 68 67 64 60 54 47 38 29 21 13 5 5 6 11 10 16 26 35 34 35 35 31 29 31 32 35 35 41 50 50 46
46 46 58 69 75 76 78 77 74 73 73 73 71 67 59 51 44 36 27 19 12 7 4 6 7 12 19 21 30 39 46 49 43 32 19 24 31 38 40 38 38 42 43
48 61 75 87 85 80 74 74 75 72 68 68 66 58 50 42 34 26 18 10 4 6 7 11 12 13 29 34 42 48 51 43 28 14 21 19 26 23 25 30 36 37 35
38 67 78 79 77 77 80 74 68 68 65 63 58 54 46 41 32 18 6 5 11 16 18 18 18 23 29 36 42 39 18 18 16 16 22 23 37 38 33 33 37 33 24
64 71 82 79 75 74 73 67 63 62 62 59 54 46 37 29 20 7 4 10 14 15 14 14 8 18 23 29 28 17 13 18 21 22 26 22 23 29 36 47 44 31 28
77 74 82 77 73 71 62 65 62 59 55 48 41 32 23 17 8 5 8 9 11 17 10 5 8 16 18 15 15 18 24 27 23 24 19 19 25 34 43 41 33 23 17
66 74 75 71 71 55 59 58 53 50 45 35 27 21 15 9 5 7 9 11 14 8 3 6 10 14 16 18 20 22 19 15 11 18 22 21 25 36 39 32 33 30 29
63 66 72 71 65 65 59 55 48 45 31 26 17 13 19 12 14 12 5 10 11 13 14 16 20 23 21 27 24 26 25 23 16 12 12 24 30 30 25 29 27 30 35
67 69 69 65 55 47 43 42 39 32 23 13 15 15 20 17 10 15 15 16 20 21 21 22 18 15 21 27 29 23 21 19 19 16 19 21 19 22 26 25 24 29 37
66 62 57 54 48 44 34 29 27 21 16 10 14 18 11 15 12 18 19 15 16 18 17 11 8 11 17 20 26 24 22 25 21 20 14 19 17 20 26 26 31 35 42
52 49 49 43 43 33 26 16 10 3 1 2 10 6 2 13 17 12 14 11 18 16 9 8 8 7 8 17 20 23 27 26 17 16 18 20 20 24 27 29 31 40 40
42 37 34 30 31 23 19 16 9 9 3 8 14 6 10 5 7 7 11 13 14 12 11 12 9 9 10 16 21 24 25 22 22 21 18 16 24 26 31 39 44 46 48
45 41 35 31 25 16 11 4 1 10 14 7 15 22 10 5 7 18 21 17 11 8 12 11 11 12 13 16 20 21 19 22 14 14 21 29 34 38 40 44 51 51 54
Wind_Direction_850mb
227 227 219 211 211 202 195 195 190 193 209 206 202 203 204 208 208 209 214 222 237 242 238 239 227 230 243 251 249 258 257 257 260 270 268 266 266 265 266 263 274 285 299
223 234 213 211 201 208 207 189 198 199 202 211 208 199 209 209 213 216 212 222 228 236 233 237 241 240 245 250 246 241 250 260 265 258 267 281 282 276 265 274 286 292 292
234 223 221 207 201 200 205 198 201 200 203 207 210 203 207 211 217 218 221 225 233 239 240 246 243 233 240 232 239 251 258 262 259 253 260 264 262 283 288 289 289 285 290
229 231 221 207 199 198 197 201 190 199 207 207 207 198 202 206 201 207 207 221 229 236 247 255 250 238 253 250 247 250 255 256 261 263 258 267 268 273 290 294 298 285 296
216 236 229 207 194 194 198 200 207 209 215 208 199 205 207 205 209 204 213 218 224 240 252 247 242 239 246 250 252 255 256 262 267 267 273 281 279 277 271 280 290 297 288
209 221 234 219 198 193 196 199 208 209 212 213 198 206 214 210 211 207 210 215 221 223 228 233 240 240 243 254 249 257 263 271 266 265 268 273 278 280 288 281 280 285 284
215 209 219 224 210 199 196 202 217 217 210 210 202 204 208 185 193 204 199 204 205 220 218 218 229 244 251 255 255 263 268 277 272 276 279 281 278 280 285 292 289 282 285
207 207 213 210 214 205 201 202 206 209 203 201 198 200 191 183 188 164 160 177 192 201 202 208 213 233 238 242 252 255 257 263 272 279 282 282 283 283 283 293 299 297 291
203 200 208 203 201 199 201 192 196 192 183 187 189 186 177 173 169 167 174 171 174 174 185 210 234 231 241 249 263 280 288 285 289 288 286 290 293 291 294 291 291 299 297
195 201 201 202 194 199 187 175 170 167 171 175 166 164 167 172 171 175 178 180 183 197 215 230 241 248 260 291 332 328 323 311 305 305 305 306 307 306 294 300 302 299 295
106 241 232 204 192 161 160 156 163 165 177 173 175 167 169 172 169 172 163 154 140 126 114 94 82 68 11 5 358 23 341 308 324 328 318 313 315 317 318 332 333 328 320
94 59 144 130 123 129 142 151 151 159 169 173 164 161 158 156 159 151 148 147 144 139 130 121 102 57 358 339 329 308 300 302 309 298 310 299 295 292 301 298 286 293 302
107 108 109 108 125 134 138 141 148 157 158 156 154 148 146 143 136 130 127 130 132 135 129 125 99 313 301 5 286 279 281 288 293 294 292 302 302 310 299 293 293 298 292
131 128 124 121 124 132 140 146 144 139 131 131 138 135 133 132 131 132 132 131 130 119 79 44 352 322 319 282 265 279 294 301 302 304 303 304 311 295 294 296 298 299 300
146 148 128 124 134 134 134 132 131 129 127 124 124 127 127 127 127 125 121 117 117 101 56 346 341 316 309 291 285 293 299 302 305 307 328 305 292 300 300 298 306 311 315
140 134 126 121 124 130 130 126 122 122 125 121 120 120 118 113 107 103 104 103 54 344 323 311 307 307 292 298 299 303 308 311 311 329 285 276 298 300 307 315 315 317 326
118 130 117 118 121 121 118 117 121 123 120 115 112 109 107 105 100 102 96 13 325 316 313 317 323 296 300 305 312 325 353 359 332 299 297 297 295 304 308 313 323 322 327
99 92 103 107 108 112 112 116 118 118 113 110 108 108 108 105 102 105 353 325 319 329 357 22 311 303 314 322 339 346 346 332 324 320 312 333 327 329 329 329 330 325 310
103 103 107 105 108 114 115 126 116 121 118 113 109 108 110 102 91 8 345 346 37 61 77 254 297 313 359 20 12 19 33 359 10 353 342 310 318 321 325 333 337 349 344
100 106 113 112 108 112 118 106 111 109 98 98 99 100 94 75 34 32 69 92 107 184 128 3 18 8 19 28 15 13 5 337 4 359 345 334 321 319 332 336 335 339 340
115 119 123 118 120 122 121 112 105 91 92 97 104 72 70 50 75 115 121 119 109 80 65 46 29 26 15 5 359 1 358 355 358 360 339 334 314 325 332 336 345 344 337
122 123 122 119 117 112 104 91 86 84 78 73 65 67 84 118 75 97 90 86 85 67 52 64 52 13 1 346 351 0 358 354 355 350 337 317 342 350 353 347 348 342 338
127 125 121 113 109 99 99 87 68 56 29 30 71 92 114 75 85 103 96 81 92 88 79 82 82 19 1 324 344 355 4 8 9 352 352 348 357 356 355 350 340 333 337
125 124 116 113 111 111 110 105 69 22 248 19 54 128 82 100 121 128 128 127 121 98 111 96 73 53 321 344 1 9 18 19 46 33 18 11 7 357 347 337 329 332 335
119 110 109 119 123 126 133 137 181 143 167 128 136 115 108 126 114 105 102 97 112 130 146 127 83 54 22 12 14 16 18 25 40 33 13 342 351 350 353 344 350 348 349
133 136 132 117 114 116 101 81 125 153 133 151 133 129 106 162 71 105 100 86 86 93 107 99 71 52 35 35 26 21 23 33 44 19 20 16 14 11 5 357 351 356 356